This is the latest recevied weather packets stored in our database for station/object KD4EED. If no packets are shown the sender has not sent any weather packets the latest 10 day(s).
| Time | Temp. | Humidity | Pressure | Rain* | Wind** | Luminosity | Snow |
|---|---|---|---|---|---|---|---|
| 1777411315 | 21.67° C | 45% | 1014.5 hPa | - | - | 728 W/m² | - |
| 1777411015 | 22.22° C | 46% | 1014.6 hPa | - | - | 735 W/m² | - |
| 1777410715 | 22.22° C | 46% | 1014.6 hPa | - | - | 740 W/m² | - |
| 1777410409 | 22.22° C | 45% | 1014.6 hPa | - | - | 752 W/m² | - |
| 1777410108 | 21.67° C | 47% | 1014.7 hPa | - | - | 760 W/m² | - |
| 1777409803 | 22.22° C | 45% | 1014.6 hPa | - | - | 766 W/m² | - |
| 1777409500 | 22.22° C | 47% | 1014.6 hPa | - | - | 773 W/m² | - |
| 1777409195 | 21.67° C | 49% | 1014.6 hPa | - | - | 785 W/m² | - |
| 1777408892 | 21.67° C | 46% | 1014.7 hPa | - | - | 792 W/m² | - |
| 1777408588 | 21.67° C | 49% | 1014.7 hPa | - | - | 800 W/m² | - |
| 1777408284 | 21.67° C | 45% | 1014.6 hPa | - | - | 807 W/m² | - |
| 1777407984 | 21.67° C | 46% | 1014.6 hPa | - | - | 811 W/m² | - |
| 1777407682 | 21.67° C | 45% | 1014.7 hPa | - | - | 814 W/m² | - |
| 1777407382 | 22.22° C | 44% | 1014.7 hPa | - | - | 818 W/m² | - |
| 1777407082 | 22.22° C | 43% | 1014.6 hPa | - | - | 820 W/m² | - |
| 1777406778 | 21.67° C | 44% | 1014.5 hPa | - | - | 821 W/m² | - |
| 1777406473 | 21.67° C | 44% | 1014.7 hPa | - | - | 824 W/m² | - |
| 1777406168 | 21.67° C | 43% | 1014.6 hPa | - | - | 825 W/m² | - |
| 1777405863 | 21.67° C | 44% | 1014.7 hPa | - | - | 824 W/m² | - |
| 1777405560 | 22.22° C | 42% | 1014.7 hPa | - | - | 821 W/m² | - |
| 1777405257 | 22.22° C | 43% | 1014.8 hPa | - | - | 819 W/m² | - |
| 1777404956 | 21.67° C | 43% | 1014.9 hPa | - | - | 819 W/m² | - |
| 1777404651 | 21.67° C | 45% | 1015 hPa | - | - | 815 W/m² | - |
| 1777404348 | 21.67° C | 44% | 1014.9 hPa | - | - | 808 W/m² | - |
| 1777404045 | 21.67° C | 44% | 1014.8 hPa | - | - | 800 W/m² | - |
* Rain since midnight (hover to see other rain measurements)
** Current wind speed in m/s (hover to see current wind gust speed)